Date String (YYYY-MM-DD hh:mm:ss) UTC,Instrument flags,Ambient pressure (hPa),Sample flow (lpm),Bypass flow (lpm),Sample temperature (°C),Ambient temperature (°C),ASC tube jacket temperature (°C),LED temperature (°C),Box temperature (°C),Sample RH (%),Span deviation,Mass concentration (μg/m³),Mass concentration (μg/m³),Mass concentration (μg/m³)
DateTimeUTC,F1_M11,P_M11,Q1_M11,Q2_M11,T1_M11,T2_M11,T3_M11,T4_M11,T5_M11,U1_M11,ZSPAN_M11,X2_M11,X0_M11,X1_M11
2021-09-29 21:00:00,,0826.0,4.98,0.00,30.1,29.3,00.0,39.1,31.9,26.9,0002.5,0007.74,0014.24,0006.34
2021-09-29 21:01:00,,0826.1,5.00,0.00,30.1,29.3,00.0,39.1,31.9,26.9,0002.2,0007.72,0014.10,0006.33
2021-09-29 21:02:00,,0826.2,5.01,0.00,30.1,29.3,00.0,39.1,31.9,26.9,0002.2,0007.70,0014.00,0006.33
2021-09-29 21:03:00,,0826.2,4.99,0.00,30.2,29.4,00.0,39.2,31.9,26.8,0002.1,0007.69,0014.05,0006.33
2021-09-29 21:04:00,,0826.2,5.00,0.00,30.2,29.4,00.0,39.2,32.0,26.7,0002.0,0007.69,0014.12,0006.31
2021-09-29 21:05:00,,0826.4,5.00,0.00,30.2,28.3,00.0,39.2,31.7,26.8,0001.9,0007.66,0013.89,0006.27
2021-09-29 21:06:00,,0826.4,4.99,0.00,30.0,26.4,00.0,39.1,31.1,27.2,0001.8,0007.61,0014.10,0006.22
2021-09-29 21:07:00,,0826.4,5.00,0.00,29.8,25.9,00.0,39.1,31.0,26.9,0002.0,0007.55,0013.88,0006.16
2021-09-29 21:08:00,,0826.4,5.01,0.00,29.7,26.3,00.0,39.0,31.1,27.0,0002.2,0007.46,0013.29,0006.10
2021-09-29 21:09:00,,0826.5,4.99,0.00,29.7,26.8,00.0,39.0,31.2,27.2,0002.2,0007.35,0012.99,0006.06
2021-09-29 21:10:00,,0826.5,5.01,0.00,29.7,27.2,00.0,38.9,31.2,27.3,0002.3,0007.30,0012.84,0006.01
2021-09-29 21:11:00,,0826.5,4.99,0.00,29.7,27.6,00.0,38.9,31.3,27.4,0002.1,0007.27,0012.88,0005.95
2021-09-29 21:12:00,,0826.5,5.01,0.00,29.7,27.9,00.0,38.9,31.3,27.4,0002.2,0007.23,0012.89,0005.89
2021-09-29 21:13:00,,0826.5,5.00,0.00,29.7,28.1,00.0,38.9,31.4,27.1,0002.3,0007.16,0012.79,0005.80
2021-09-29 21:14:00,,0826.5,5.00,0.00,29.7,28.3,00.0,38.9,31.4,27.1,0002.3,0007.05,0012.57,0005.73
2021-09-29 21:15:00,,0826.5,5.00,0.00,29.7,28.4,00.0,38.9,31.5,27.3,0002.0,0006.93,0012.30,0005.66
2021-09-29 21:16:00,,0826.5,5.00,0.00,29.7,28.5,00.0,38.9,31.5,27.5,0001.8,0006.89,0011.93,0005.62
2021-09-29 21:17:00,,0826.5,5.00,0.00,29.8,28.6,00.0,38.9,31.5,27.7,0001.8,0006.81,0011.45,0005.60
2021-09-29 21:18:00,,0826.4,5.00,0.00,29.8,28.7,00.0,38.9,31.5,27.7,0001.8,0006.77,0011.48,0005.58
2021-09-29 21:19:00,,0826.5,5.01,0.00,29.8,28.8,00.0,38.9,31.6,27.8,0001.6,0006.78,0011.67,0005.58
2021-09-29 21:20:00,,0826.5,4.99,0.00,29.8,28.8,00.0,38.9,31.6,27.8,0001.9,0006.79,0011.77,0005.58
2021-09-29 21:21:00,,0826.5,4.99,0.00,29.9,28.9,00.0,38.9,31.7,28.1,0002.0,0006.77,0011.77,0005.58
2021-09-29 21:22:00,,0826.5,5.01,0.00,29.9,28.9,00.0,38.9,31.7,28.2,0002.2,0006.71,0011.80,0005.57
2021-09-29 21:23:00,,0826.5,4.99,0.00,29.9,28.9,00.0,38.9,31.7,28.5,0002.2,0006.64,0011.65,0005.55
2021-09-29 21:24:00,,0826.5,4.99,0.00,29.9,29.0,00.0,39.0,31.7,28.4,0002.2,0006.58,0011.63,0005.56
2021-09-29 21:25:00,,0826.5,5.01,0.00,30.0,29.0,00.0,39.0,31.7,28.4,0002.2,0006.58,0011.74,0005.52
2021-09-29 21:26:00,,0826.5,5.00,0.00,30.0,29.0,00.0,39.0,31.8,28.9,0002.4,0006.56,0011.83,0005.51
2021-09-29 21:27:00,,0826.6,4.99,0.00,30.0,29.1,00.0,39.0,31.7,28.7,0002.5,0006.49,0011.81,0005.47
2021-09-29 21:28:00,,0826.6,5.01,0.00,30.0,29.1,00.0,39.0,31.8,28.5,0002.6,0006.43,0012.08,0005.39
2021-09-29 21:29:00,,0826.7,5.00,0.00,30.1,29.1,00.0,39.0,31.8,27.5,0002.5,0006.32,0011.97,0005.29
2021-09-29 21:30:00,,0826.7,4.99,0.00,30.1,29.2,00.0,39.1,31.9,27.0,0002.4,0006.19,0011.99,0005.19
2021-09-29 21:31:00,,0826.7,5.02,0.00,30.1,29.2,00.0,39.1,31.9,27.5,0002.1,0006.01,0011.69,0005.05
2021-09-29 21:32:00,,0826.8,4.99,0.00,30.1,29.2,00.0,39.1,31.9,27.0,0002.1,0005.85,0011.43,0004.93
2021-09-29 21:33:00,,0826.8,5.00,0.00,30.1,29.2,00.0,39.1,31.9,26.6,0001.8,0005.76,0011.09,0004.82
2021-09-29 21:34:00,,0826.8,5.00,0.00,30.1,29.2,00.0,39.1,31.9,25.4,0001.8,0005.67,0010.94,0004.74
2021-09-29 21:35:00,,0827.2,4.99,0.00,30.2,29.2,00.0,39.2,32.0,25.2,0001.9,0005.57,0010.73,0004.65
2021-09-29 21:36:00,,0827.2,5.00,0.00,30.2,29.3,00.0,39.2,32.0,26.1,0001.8,0005.42,0010.51,0004.57
2021-09-29 21:37:00,,0826.9,5.00,0.00,30.2,28.2,00.0,39.2,31.7,25.8,0002.2,0005.28,0010.21,0004.46
2021-09-29 21:38:00,,0827.3,5.00,0.00,30.0,26.6,00.0,39.2,31.3,26.3,0002.3,0005.11,0009.74,0004.35
2021-09-29 21:39:00,,0826.9,5.01,0.00,29.9,26.1,00.0,39.1,31.1,27.2,0002.4,0005.02,0009.22,0004.29
2021-09-29 21:40:00,,0826.8,5.00,0.00,29.8,26.5,00.0,39.1,31.2,27.8,0002.8,0004.98,0009.03,0004.27
2021-09-29 21:41:00,,0826.9,5.01,0.00,29.7,27.0,00.0,39.0,31.2,27.6,0002.8,0004.97,0008.76,0004.25
2021-09-29 21:42:00,,0826.9,5.00,0.00,29.7,27.4,00.0,39.0,31.3,28.1,0003.0,0004.97,0008.82,0004.25
2021-09-29 21:43:00,,0827.0,4.99,0.00,29.7,27.7,00.0,39.0,31.3,27.5,0002.9,0004.95,0009.05,0004.24
2021-09-29 21:44:00,,0826.9,5.00,0.00,29.7,28.0,00.0,38.9,31.4,27.3,0002.8,0004.90,0009.00,0004.22
2021-09-29 21:45:00,,0827.1,5.00,0.00,29.8,28.2,00.0,38.9,31.5,26.7,0002.6,0004.88,0008.99,0004.19
2021-09-29 21:46:00,,0827.0,5.00,0.00,29.8,28.4,00.0,38.9,31.5,26.6,0002.5,0004.85,0008.89,0004.18
2021-09-29 21:47:00,,0827.0,5.00,0.00,29.8,28.5,00.0,38.9,31.5,25.6,0002.5,0004.90,0009.05,0004.21
2021-09-29 21:48:00,,0827.1,4.99,0.00,29.8,28.7,00.0,38.9,31.6,26.3,0002.0,0004.92,0009.36,0004.24
2021-09-29 21:49:00,,0827.1,5.01,0.00,29.9,28.7,00.0,38.9,31.7,26.1,0001.6,0004.97,0009.46,0004.27
2021-09-29 21:50:00,,0827.1,5.00,0.00,29.9,28.8,00.0,38.9,31.7,25.6,0001.2,0005.02,0009.58,0004.29
2021-09-29 21:51:00,,0827.2,4.99,0.00,29.9,28.9,00.0,38.9,31.7,25.9,0000.8,0005.04,0009.74,0004.31
2021-09-29 21:52:00,,0827.2,5.01,0.00,30.0,29.0,00.0,39.0,31.8,26.5,0000.9,0005.05,0009.77,0004.31
2021-09-29 21:53:00,,0827.2,4.99,0.00,30.0,29.0,00.0,39.0,31.7,25.7,0000.8,0005.14,0010.11,0004.34
2021-09-29 21:54:00,,0827.2,5.01,0.00,30.0,29.1,00.0,39.0,31.8,24.3,0001.1,0005.23,0010.32,0004.39
2021-09-29 21:55:00,,0827.2,4.98,0.00,30.0,29.1,00.0,39.0,31.8,24.2,0001.3,0005.32,0010.50,0004.46
2021-09-29 21:56:00,,0827.2,5.01,0.00,30.1,29.2,00.0,39.0,31.9,24.4,0001.2,0005.36,0010.57,0004.50
2021-09-29 21:57:00,,0827.2,5.00,0.00,30.1,29.2,00.0,39.1,31.9,24.8,0001.1,0005.44,0010.86,0004.54
2021-09-29 21:58:00,,0827.3,4.99,0.00,30.1,29.3,00.0,39.1,31.9,24.6,0001.4,0005.51,0010.83,0004.57
2021-09-29 21:59:00,,0827.3,5.00,0.00,30.1,29.3,00.0,39.1,31.9,24.2,0001.5,0005.58,0011.02,0004.59
